This demonstration page uses our WeatherBlox Daily Observations layout. Learn more.

Left ArrowRight Arrow

Hourly Observations for July 18, 2020

Temp ( °F °C ) Dew Point ( °F °C ) Humidity (%) Winds ( mph kmh ) Pressure ( in mb ) Visibility ( mi km ) Precip ( " mm )
12:15 am 00:15 Partly Cloudy 79 26 70 21 74 74 Calm 30.09 1019 10 16.0934 0 0
12:35 am 00:35 Partly Cloudy 79 26 70 21 74 74 Calm 30.08 1019 10 16.0934 0 0
12:55 am 00:55 Partly Cloudy 77 25 70 21 79 79 Calm 30.08 1019 10 16.0934 0 0
1:15 am 01:15 Partly Cloudy 77 25 70 21 79 79 Calm 30.08 1019 10 16.0934 0 0
1:35 am 01:35 Mostly Cloudy 77 25 70 21 79 79 N 5 7 30.08 1019 10 16.0934 0 0
1:55 am 01:55 Mostly Cloudy 77 25 70 21 79 79 Calm 30.09 1019 10 16.0934 0 0
2:35 am 02:35 Partly Cloudy 77 25 70 21 79 79 NNE 5 7 30.08 1019 10 16.0934 0 0
2:55 am 02:55 Partly Cloudy 77 25 70 21 79 79 N 5 7 30.08 1019 10 16.0934 0 0
3:15 am 03:15 Partly Cloudy 75 24 70 21 83 83 N 5 7 30.09 1019 10 16.0934 0 0
3:35 am 03:35 Partly Cloudy 73 23 70 21 89 89 NNE 3 6 30.09 1019 10 16.0934 0 0
3:55 am 03:55 Clear 75 24 70 21 83 83 N 3 6 30.09 1019 10 16.0934 0 0
4:15 am 04:15 Clear 73 23 70 21 89 89 N 5 7 30.08 1019 10 16.0934 0 0
4:35 am 04:35 Clear 73 23 68 20 83 83 N 5 7 30.09 1019 10 16.0934 0 0
4:55 am 04:55 Partly Cloudy 73 23 68 20 83 83 N 3 6 30.09 1019 10 16.0934 0 0
5:15 am 05:15 Clear 73 23 66 19 78 78 Calm 30.09 1019 10 16.0934 0 0
5:35 am 05:35 Clear 72 22 68 20 88 88 Calm 30.1 1019 10 16.0934 0 0
5:55 am 05:55 Clear 70 21 68 20 94 94 Calm 30.1 1019 10 16.0934 0 0
6:15 am 06:15 Sunny 70 21 68 20 94 94 Calm 30.1 1019 10 16.0934 0 0
6:35 am 06:35 Sunny 70 21 66 19 88 88 Calm 30.1 1019 10 16.0934 0 0
6:55 am 06:55 Sunny 70 21 68 20 94 94 Calm 30.11 1020 10 16.0934 0 0
7:15 am 07:15 Sunny 73 23 68 20 83 83 Calm 30.12 1020 10 16.0934 0 0
7:35 am 07:35 Sunny 75 24 68 20 78 78 Calm 30.12 1020 10 16.0934 0 0
7:55 am 07:55 Sunny 77 25 68 20 74 74 Calm 30.12 1020 10 16.0934 0 0
8:15 am 08:15 Sunny 79 26 68 20 70 70 Calm 30.12 1020 10 16.0934 0 0
8:35 am 08:35 Sunny 79 26 68 20 70 70 Calm 30.11 1020 10 16.0934 0 0
8:55 am 08:55 Sunny 81 27 68 20 66 66 NNW 3 6 30.12 1020 10 16.0934 0 0
9:15 am 09:15 Sunny 82 28 68 20 62 62 Calm 30.12 1020 10 16.0934 0 0
9:35 am 09:35 Sunny 82 28 66 19 58 58 Calm 30.12 1020 10 16.0934 0 0
9:55 am 09:55 Sunny 86 30 64 18 49 49 Calm 30.13 1020 10 16.0934 0 0
10:15 am 10:15 Sunny 86 30 64 18 49 49 Calm 30.13 1020 10 16.0934 0 0
10:35 am 10:35 Sunny 86 30 64 18 49 49 Calm 30.12 1020 10 16.0934 0 0
10:55 am 10:55 Sunny 88 31 63 17 43 43 Calm 30.12 1020 10 16.0934 0 0
11:15 am 11:15 Sunny 88 31 64 18 46 46 NNE 5 7 30.11 1020 10 16.0934 0 0
11:35 am 11:35 Sunny 90 32 63 17 41 41 Calm 30.11 1019 10 16.0934 0 0
11:55 am 11:55 Sunny 90 32 64 18 43 43 N 3 6 30.1 1019 N/A 0 0
12:15 pm 12:15 Sunny 90 32 64 18 43 43 NNW 6 9 30.1 1019 7 11.26538 0 0
12:35 pm 12:35 Sunny 90 32 63 17 41 41 NW 5 7 30.09 1019 N/A 0 0
12:55 pm 12:55 Sunny 90 32 64 18 43 43 N 5 7 30.08 1018 N/A 0 0
1:15 pm 13:15 Sunny 91 33 64 18 41 41 S 3 6 30.07 1018 N/A 0 0
1:35 pm 13:35 Sunny 91 33 64 18 41 41 NNW 5 7 30.06 1018 N/A 0 0
1:55 pm 13:55 Sunny 91 33 64 18 41 41 NW 7 11 30.05 1018 10 16.0934 0 0
2:15 pm 14:15 Sunny 91 33 63 17 38 38 NW 5 7 30.05 1018 10 16.0934 0 0
2:35 pm 14:35 Sunny 95 35 64 18 36 36 W 8 13 30.05 1018 10 16.0934 0 0
2:55 pm 14:55 Sunny 93 34 64 18 39 39 Calm 30.04 1017 10 16.0934 0 0
3:15 pm 15:15 Sunny 93 34 64 18 39 39 NW 5 7 30.04 1017 10 16.0934 0 0
3:35 pm 15:35 Sunny 95 35 63 17 34 34 Calm 30.03 1017 10 16.0934 0 0
3:55 pm 15:55 Sunny 93 34 63 17 36 36 NNE 3 6 30.02 1017 10 16.0934 0 0
4:15 pm 16:15 Mostly Cloudy 95 35 63 17 34 34 E 3 6 30.02 1017 10 16.0934 0 0
4:35 pm 16:35 Mostly Cloudy 95 35 63 17 34 34 ENE 7 11 30.02 1017 10 16.0934 0 0
4:55 pm 16:55 Mostly Cloudy 95 35 63 17 34 34 ENE 7 11 30 1016 10 16.0934 0 0
5:15 pm 17:15 Partly Cloudy 95 35 63 17 34 34 E 6 9 29.99 1016 10 16.0934 0 0
5:35 pm 17:35 Sunny 95 35 63 17 34 34 SSW 6 9 29.99 1016 10 16.0934 0 0
5:55 pm 17:55 Sunny 95 35 64 18 36 36 SW 3 6 29.98 1015 10 16.0934 0 0
6:15 pm 18:15 Sunny 95 35 63 17 34 34 SSW 5 7 29.98 1015 10 16.0934 0 0
6:35 pm 18:35 Sunny 95 35 64 18 36 36 SSW 3 6 29.98 1015 10 16.0934 0 0
6:55 pm 18:55 Sunny 95 35 64 18 36 36 Calm 29.98 1015 10 16.0934 0 0
7:15 pm 19:15 Sunny 93 34 63 17 36 36 ENE 5 7 29.98 1015 10 16.0934 0 0
7:35 pm 19:35 Sunny 91 33 63 17 38 38 E 7 11 29.99 1016 10 16.0934 0 0
7:55 pm 19:55 Sunny 90 32 63 17 41 41 Calm 30 1016 10 16.0934 0 0
8:15 pm 20:15 Sunny 90 32 63 17 41 41 Calm 30 1016 10 16.0934 0 0
8:35 pm 20:35 Clear 90 32 63 17 41 41 Calm 30 1016 10 16.0934 0 0
8:55 pm 20:55 Clear 90 32 63 17 41 41 ESE 6 9 30.01 1016 10 16.0934 0 0
9:15 pm 21:15 Clear 88 31 64 18 46 46 SE 7 11 30.01 1016 10 16.0934 0 0
9:35 pm 21:35 Clear 88 31 64 18 46 46 SE 5 7 30.01 1016 10 16.0934 0 0
9:55 pm 21:55 Clear 86 30 64 18 49 49 Calm 30.02 1017 10 16.0934 0 0
10:15 pm 22:15 Clear 84 29 68 20 58 58 ESE 3 6 30.03 1017 10 16.0934 0 0
10:35 pm 22:35 Clear 84 29 68 20 58 58 Calm 30.03 1017 10 16.0934 0 0
10:55 pm 22:55 Clear 79 26 70 21 74 74 Calm 30.03 1017 10 16.0934 0 0
11:15 pm 23:15 Clear 79 26 70 21 74 74 Calm 30.02 1017 10 16.0934 0 0
11:35 pm 23:35 Clear 79 26 70 21 74 74 Calm 30.02 1017 10 16.0934 0 0
11:55 pm 23:55 Clear 77 25 70 21 79 79 Calm 30.02 1017 10 16.0934 0 0

Powered by AerisWeather